Location: Branche des Alpilles
(43.6087°N, 4.6976°E)
Time: 05:34:36
(UTC+00:00)

SKYMED 2 - Pass Details

Date: 30 November 2020
Orbit: 621 x 623 km, 97.9° (Epoch: 27 January)

Event Time Altitude Azimuth Distance (km) Brightness Sun altitude
Exits shadow 17:53:41 15° 13° (NNE) 1,710 5.6 -19.0°
Maximum altitude 17:57:20 90° 267° (W) 630 3.5 -19.6°
Drops below altitude 10° 18:01:40 10° 194° (SSW) 1,988 6.5 -20.4°
Sets 18:03:50 0° 195° (SSW) 2,889 7.3 -20.8°
